Location: Chefe Valiua
(16.5342°S, 37.2214°E)
Time: 14:33:20
(UTC+00:00)

Envisat - Pass Details

Date: 16 June 2021
Orbit: 764 x 766 km, 98.1° (Epoch: 25 July)

Event Time Altitude Azimuth Distance (km) Brightness Sun altitude
Rises 15:53:13 0° 199° (SSW) 3,246 6.2 -11.2°
Reaches altitude 10° 15:56:55 10° 227° (SW) 2,312 5.8 -12.0°
Maximum altitude 15:59:01 13° 252° (WSW) 2,129 6.1 -12.5°
Drops below altitude 10° 16:01:08 10° 277° (W) 2,304 6.8 -13.0°
Sets 16:04:49 0° 305° (NW) 3,222 7.9 -13.8°
